View from above orbital plane
|
View from above satellite
|
Ground track
|
The orbit data is extracted from the following two-line orbital elements,
1 31708U 07027C 21047.73578242 0.00000000 00000-0 00000-0 0 00
2 31708 63.3906 263.6648 0305277 19.6614 340.3386 13.40796353 02
Epoch (UTC): | 16 February 2021 17:39:31 |
Eccentricity: | 0.0305277 |
inclination: | 63.3906° |
perigee height: | 878 km |
apogee height: | 1335 km |
right ascension of ascending node: | 263.6648° |
argument of perigee: | 19.6614° |
revolutions per day: | 13.40796353 |
mean anomaly at epoch: | 340.3386° |
orbit number at epoch: | 0 |
The dashed part of the orbit path shows where the satellite is in the earth's shadow,
|
|